FENGYUN 1C DEB

Satellite information

Favourite Embed

Satellite Type and Status

DEBRISIN ORBIT

Key statistics

Satellite FENGYUN 1C DEB at a glance.

Uptime

9661

Days in orbit

Revolutions

≈ 13.6

Per day

Orbit

SSO

Sun Synchronous Orbit

Inclination

99.6

Latest

Satellite identification and parameters

Extended collection of information and parameters for FENGYUN 1C DEB.

Object identification

Identified? True

Debris? True

Object name: FENGYUN 1C DEB

International designator: 1999-025AQN

Object number (NORAD): 30680

Object ID (CCSDS): 30680

Country: PEOPLES REPUBLIC OF CHINA (PRC)

Current information (Y/N): Y

RCS size: SMALL

Orbital parameters

Period: 106.235 minutes

Inclination: 99.6216 deg

SMA: 7430.259 km

Apoapsis: 1300.331 km

Periapsis: 803.918 km

RAAN: 337.5789 deg

Eccentricy: 0.03340485

Argument of periapsis: 299.1174 deg

Mean anomaly: 57.6905 deg

Mean motion: 13.55491505 rev/day

Mean motion (dot): 0.00005445 rev/day2

B* drag term: 0.0055260717 1/REarth

Two-line elements (TLE)

Creation date: Oct. 21, 2025, 3:26 a.m.

Reference frame: TEME

Reference center: EARTH

Epoch: Oct. 20, 2025, 7:17 p.m. UTC

TLE line 0: 0 FENGYUN 1C DEB

TLE line 1: 1 30680U 99025AQN 25293.80357659 .00005445 00000-0 55261-2 0 9995

TLE line 2: 2 30680 99.6216 337.5789 0334049 299.1174 57.6905 13.55491505915364

Live tracking on map

Real-time ground track for satellite FENGYUN 1C DEB.

In-orbit conjunctions

A list of the most updated potential collisions computed for object FENGYUN 1C DEB.

Target Orbit TCA Probability of collision Miss distance Type
CZ-6A DEB LEO 2024-12-23 16:53:19 0.0002828477 263.0 (m) DEBRIS
FENGYUN 1C DEB SSO 2024-07-11 13:21:31 0.0001172035 226.0 (m) DEBRIS
GREB LEO 2024-07-02 21:45:27 0.0002197688 466.0 (m) PAYLOAD

Associated space launch

Chinese polar orbiting meteorological satellite

FENGYUN 1C DEB was lifted into orbit during the mission ‘Long March 4B | Feng Yun 1C’, on board a Long March 4B space rocket.

The launch took place on May 10, 1999, 1:33 a.m. from Launch Complex 7.

For more information about the launch, click the button.

Launch to space Long March 4B | Feng Yun 1C
Long March 4B | Feng Yun 1C

Agency: N/A

Status: Launch Successful

Launch date: May 10, 1999, 1:33 a.m. UTC

Rocket: Long March 4B

Launch pad: Launch Complex 7

Location: Taiyuan Satellite Launch Center, People's Republic of China

...

Latest news about this satellite

There are no fresh news available about this satellite. Check back as we update our databases every day.


Newsletter sign-up

Weekly statistics, charts and insights to help you stay on top of the space industry.